DAL442 CYYZ-KBOS

Flight info

Callsign DAL442
Flight time N/A
Altitude 41000
Route KEPTA3 BMPAH DCT AEVON DCT HANKK DCT PONCT JFUND2
Aircraft A359/H-SDE2E3GHIJ3J4J5LM1ORWXY/LB1D1

Departure

Time 2026-05-07 23:56
Airport Toronto Pearson International Airport (CYYZ)

Arrival

Time N/A
Airport Boston Logan International Airport (KBOS)
Time Latitude Longitude Altitude Speed Heading
2026-05-07 23:20 43.67762 -79.61327 577 ft 0 kts 136°
2026-05-07 23:39 43.67769 -79.61337 568 ft 4 kts 137°
2026-05-07 23:39 43.67788 -79.61362 569 ft 4 kts 141°
2026-05-07 23:40 43.67811 -79.61380 573 ft 4 kts 168°
2026-05-07 23:40 43.67836 -79.61379 572 ft 4 kts 208°
2026-05-07 23:40 43.67847 -79.61369 574 ft 3 kts 226°
2026-05-07 23:45 43.67803 -79.61432 577 ft 12 kts 226°
2026-05-07 23:45 43.67749 -79.61508 575 ft 10 kts 225°
2026-05-07 23:46 43.67701 -79.61576 575 ft 9 kts 226°
2026-05-07 23:46 43.67662 -79.61634 577 ft 7 kts 225°
2026-05-07 23:46 43.67635 -79.61669 577 ft 4 kts 223°
2026-05-07 23:46 43.67618 -79.61692 577 ft 4 kts 222°
2026-05-07 23:47 43.67594 -79.61722 575 ft 5 kts 221°
2026-05-07 23:47 43.67570 -79.61750 577 ft 1 kts 219°
2026-05-07 23:47 43.67564 -79.61750 579 ft 2 kts 190°
2026-05-07 23:47 43.67545 -79.61743 578 ft 8 kts 155°
2026-05-07 23:48 43.67474 -79.61665 576 ft 12 kts 133°
2026-05-07 23:48 43.67397 -79.61550 576 ft 19 kts 134°
2026-05-07 23:48 43.67335 -79.61465 579 ft 6 kts 137°
2026-05-07 23:48 43.67279 -79.61395 574 ft 13 kts 138°
2026-05-07 23:49 43.67202 -79.61298 574 ft 15 kts 136°
2026-05-07 23:49 43.67142 -79.61236 575 ft 7 kts 161°
2026-05-07 23:49 43.67108 -79.61233 571 ft 0 kts 193°
2026-05-07 23:49 43.67098 -79.61238 574 ft 11 kts 200°
2026-05-07 23:50 43.67051 -79.61274 572 ft 0 kts 224°
2026-05-07 23:50 43.67001 -79.61356 579 ft 17 kts 233°
2026-05-07 23:50 43.66938 -79.61455 575 ft 12 kts 226°
2026-05-07 23:50 43.66893 -79.61537 576 ft 8 kts 240°
2026-05-07 23:51 43.66874 -79.61589 578 ft 0 kts 252°
2026-05-07 23:51 43.66870 -79.61609 578 ft 14 kts 252°
2026-05-07 23:51 43.66830 -79.61770 574 ft 19 kts 245°
2026-05-07 23:51 43.66745 -79.61914 579 ft 22 kts 224°
2026-05-07 23:52 43.66664 -79.62012 578 ft 11 kts 221°
2026-05-07 23:52 43.66573 -79.62126 578 ft 23 kts 223°
2026-05-07 23:52 43.66461 -79.62270 573 ft 17 kts 223°
2026-05-07 23:52 43.66392 -79.62359 574 ft 11 kts 222°
2026-05-07 23:53 43.66338 -79.62421 573 ft 8 kts 213°
2026-05-07 23:53 43.66318 -79.62433 574 ft 0 kts 198°
2026-05-07 23:53 43.66292 -79.62430 570 ft 5 kts 163°
2026-05-07 23:53 43.66280 -79.62423 572 ft 0 kts 159°
2026-05-07 23:54 43.66279 -79.62423 572 ft 2 kts 159°
2026-05-07 23:54 43.66273 -79.62419 573 ft 0 kts 155°
2026-05-07 23:54 43.66234 -79.62384 575 ft 8 kts 143°
2026-05-07 23:54 43.66193 -79.62328 575 ft 8 kts 126°
2026-05-07 23:55 43.66183 -79.62291 574 ft 5 kts 106°
2026-05-07 23:55 43.66182 -79.62286 577 ft 0 kts 101°
2026-05-07 23:55 43.66183 -79.62269 575 ft 1 kts 72°
2026-05-07 23:55 43.66224 -79.62172 576 ft 15 kts 50°
2026-05-07 23:56 43.66520 -79.61742 574 ft 112 kts 46°
2026-05-07 23:56 43.66969 -79.61090 584 ft 168 kts 45°
2026-05-07 23:56 43.68170 -79.59352 1468 ft 202 kts 43°
2026-05-07 23:56 43.69181 -79.57868 1679 ft 204 kts 43°
2026-05-07 23:57 43.70023 -79.56706 2578 ft 157 kts 40°
2026-05-07 23:57 43.70898 -79.55657 3006 ft 182 kts 37°
2026-05-07 23:57 43.71590 -79.54872 3199 ft 205 kts 37°
2026-05-07 23:57 43.72764 -79.53527 3577 ft 232 kts 36°
2026-05-07 23:58 43.74069 -79.52109 3946 ft 232 kts 35°
2026-05-07 23:58 43.75191 -79.50749 4316 ft 196 kts 53°
2026-05-07 23:58 43.75422 -79.49148 4715 ft 154 kts 111°
2026-05-07 23:58 43.74735 -79.48272 4817 ft 138 kts 174°
2026-05-07 23:59 43.73828 -79.48445 4494 ft 149 kts 194°
2026-05-07 23:59 43.72583 -79.48572 4345 ft 208 kts 180°
2026-05-07 23:59 43.71030 -79.48214 4271 ft 230 kts 168°
2026-05-07 23:59 43.69520 -79.47800 4311 ft 212 kts 170°